User: anonymous   Login
Location: Unspecified
(0.0000°N, 0.0000°E)
Time: 17:45:34
(UTC+00:00)
Language:

STARS - Orbit

View from above orbital plane
View from above orbital plane
View from above satellite
View from above satellite

Ground track
Ground track

The orbit data is extracted from the following two-line orbital elements,

1 33498U 09002G   18017.11186524  .00000206  00000-0  35710-4 0  9991
2 33498  98.3286 203.4683 0011592  31.4392  85.1190 14.78733312483515
Epoch (UTC): 17 January 2018 02:41:05
Eccentricity: 0.0011592
inclination: 98.3286°
perigee height: 625 km
apogee height: 641 km
right ascension of ascending node: 203.4683°
argument of perigee: 31.4392°
revolutions per day: 14.78733312
mean anomaly at epoch: 85.1190°
orbit number at epoch: 48351

The dashed part of the orbit path shows where the satellite is in the earth's shadow,  

DLR